TimeCDT,TemperatureF,Dew PointF,Humidity,Sea Level PressureIn,VisibilityMPH,Wind Direction,Wind SpeedMPH,Gust SpeedMPH,PrecipitationIn,Events,Conditions,WindDirDegrees,DateUTC
12:53 AM,41.0,32.0,70,30.04,10.0,North,5.8,-,N/A,,Clear,350,2012-11-03 05:53:00
1:53 AM,39.0,32.0,76,30.05,10.0,NNW,5.8,-,N/A,,Clear,330,2012-11-03 06:53:00
2:53 AM,37.0,32.0,82,30.06,10.0,NNW,6.9,-,N/A,,Clear,330,2012-11-03 07:53:00
3:53 AM,36.0,30.9,82,30.07,10.0,NW,9.2,-,N/A,,Clear,320,2012-11-03 08:53:00
4:53 AM,35.1,30.0,82,30.09,10.0,NW,6.9,-,N/A,,Clear,320,2012-11-03 09:53:00
5:53 AM,34.0,28.9,82,30.13,10.0,NW,8.1,-,N/A,,Clear,310,2012-11-03 10:53:00
6:53 AM,32.0,28.9,88,30.14,10.0,NW,6.9,-,N/A,,Clear,320,2012-11-03 11:53:00
7:53 AM,32.0,28.0,85,30.16,10.0,NW,5.8,-,N/A,,Clear,320,2012-11-03 12:53:00
8:53 AM,33.1,28.9,85,30.19,10.0,NW,6.9,-,N/A,,Clear,320,2012-11-03 13:53:00
9:53 AM,39.0,32.0,76,30.21,10.0,NNW,6.9,-,N/A,,Clear,340,2012-11-03 14:53:00
10:53 AM,44.1,33.1,65,30.21,10.0,North,8.1,-,N/A,,Clear,350,2012-11-03 15:53:00
11:53 AM,48.0,32.0,54,30.22,10.0,NNW,9.2,-,N/A,,Clear,340,2012-11-03 16:53:00
12:53 PM,52.0,32.0,47,30.20,10.0,North,9.2,-,N/A,,Clear,360,2012-11-03 17:53:00
1:53 PM,54.0,30.9,41,30.18,10.0,North,9.2,-,N/A,,Clear,350,2012-11-03 18:53:00
2:53 PM,55.9,30.9,39,30.18,10.0,Variable,5.8,-,N/A,,Clear,0,2012-11-03 19:53:00
3:53 PM,55.9,30.9,39,30.17,10.0,North,6.9,-,N/A,,Clear,360,2012-11-03 20:53:00
4:53 PM,55.9,32.0,40,30.17,10.0,NNW,6.9,-,N/A,,Clear,340,2012-11-03 21:53:00
5:53 PM,52.0,32.0,47,30.18,10.0,NNW,4.6,-,N/A,,Clear,330,2012-11-03 22:53:00
6:53 PM,48.9,30.9,50,30.19,10.0,NNW,4.6,-,N/A,,Clear,340,2012-11-03 23:53:00
7:53 PM,46.9,30.9,54,30.21,10.0,Calm,Calm,-,N/A,,Clear,0,2012-11-04 00:53:00
8:53 PM,44.1,30.9,60,30.22,10.0,NNW,3.5,-,N/A,,Clear,340,2012-11-04 01:53:00
9:53 PM,39.9,30.0,68,30.22,10.0,NNW,3.5,-,N/A,,Clear,330,2012-11-04 02:53:00
10:53 PM,37.0,28.9,73,30.21,10.0,Calm,Calm,-,N/A,,Clear,0,2012-11-04 03:53:00
11:53 PM,37.9,30.0,73,30.21,10.0,Calm,Calm,-,N/A,,Overcast,0,2012-11-04 04:53:00